* Astronomy

Members Login
Username 
 
Password 
    Remember Me  
Post Info TOPIC: Asteroid 2011 WP41


L

Posts: 131433
Date:
Asteroid 2011 WP41
Permalink  
 


Orbital elements:
2011 WP41                                                Earth MOID = 0.0669 AU
Epoch 2011 Aug. 27.0 TT = JDT 2455800.5                 MPC
M 348.18879              (2000.0)            P               Q
n   0.36309570     Peri.  292.37887     +0.97785144     +0.11629627
a   1.9459065      Node    61.32541     -0.01956984     +0.87858105
e   0.5411665      Incl.   11.43998     -0.20838324     +0.46321758
P   2.71           H   24.2           G   0.15           U   8

MPEC 2011 - W55



__________________
Page 1 of 1  sorted by
 
Quick Reply

Please log in to post quick replies.



Create your own FREE Forum
Report Abuse
Powered by ActiveBoard